Location: Moscow
(38.3171°N, 79.0889°W)
Time: 22:24:00
(UTC+00:00)

SMAP - Pass Details

Date: 07 November 2025
Orbit: 681 x 683 km, 98.1° (Epoch: 14 December)

Event Time Altitude Azimuth Distance (km) Brightness Sun altitude
Rises 22:52:12 0° 171° (S) 3,030 6.5 -8.7°
Reaches altitude 10° 22:54:26 10° 173° (S) 2,119 5.7 -9.1°
Maximum altitude 22:59:03 72° 258° (WSW) 721 3.4 -10.0°
Drops below altitude 10° 23:03:43 10° 343° (NNW) 2,134 5.7 -10.9°
Sets 23:05:59 0° 346° (NNW) 3,054 6.5 -11.3°
